FW2131 Weather Reports


Display with metric or nautical units.
time (UTC)temp
F
wind
direction
speed
MPH
gust
MPH
rain 1hr
in
rain 24hr
in
rain mn
in
humidity
%
barometer
mb
20190322094944 39 238 0.0 0.0 0.00 0.00 0.00 82 1020.9
20190322094440 40 207 0.0 0.0 0.00 0.00 0.00 82 1021.3
20190322093915 40 236 0.0 0.0 0.00 0.00 0.00 80 1021.3
20190322093345 40 247 0.0 0.0 0.00 0.00 0.00 79 1021.3
20190322092842 40 227 0.0 0.0 0.00 0.00 0.00 78 1020.9
20190322092317 41 276 0.0 0.0 0.00 0.00 0.00 76 1020.9
20190322091747 41 236 0.0 0.0 0.00 0.00 0.00 75 1020.9
20190322091245 41 235 0.0 0.0 0.00 0.00 0.00 73 1020.9
20190322090659 41 224 0.0 0.0 0.00 0.00 0.00 72 1020.9
20190322090143 42 359 0.0 0.0 0.00 0.00 0.00 72 1020.9
20190322085620 42 1 0.0 0.0 0.00 0.00 0.00 72 1021.3
20190322085056 42 9 0.0 0.0 0.00 0.00 0.00 72 1021.3
20190322084545 42 18 0.0 0.0 0.00 0.00 0.00 71 1021.3
20190322084017 42 356 0.0 0.0 0.00 0.00 0.00 71 1021.6
20190322083511 42 12 0.0 0.0 0.00 0.00 0.00 71 1021.3
20190322082945 42 1 0.0 0.0 0.00 0.00 0.00 70 1021.3
20190322082444 43 0 0.0 0.0 0.00 0.00 0.00 69 1021.6
20190322081908 43 353 0.0 0.0 0.00 0.00 0.00 69 1021.6
20190322081346 43 357 0.0 0.0 0.00 0.00 0.00 70 1021.6
20190322080820 43 34 0.0 0.0 0.00 0.00 0.00 69 1021.6
20190322080310 43 14 0.0 0.0 0.00 0.00 0.00 67 1021.6
20190322075744 43 355 0.0 0.0 0.00 0.00 0.00 66 1022.0
20190322075217 43 13 0.0 0.0 0.00 0.00 0.00 66 1022.0
20190322074712 43 3 0.0 0.0 0.00 0.00 0.00 67 1022.0
20190322074145 43 2 0.0 0.0 0.00 0.00 0.00 66 1022.0
20190322073617 43 358 0.0 0.0 0.00 0.00 0.00 66 1022.0
20190322073046 44 355 0.0 0.0 0.00 0.00 0.00 70 1022.0
20190322072546 44 197 0.0 0.0 0.00 0.00 0.00 72 1022.0
20190322072023 44 319 0.0 0.0 0.00 0.00 0.00 67 1022.0
20190322071515 44 341 0.0 0.0 0.00 0.00 0.00 72 1022.0
20190322070947 44 281 0.0 0.0 0.00 0.00 0.00 71 1022.0
20190322070419 45 307 0.0 0.0 0.00 0.00 0.00 68 1022.0
20190322065915 45 343 0.0 0.0 0.00 0.00 0.00 70 1022.0
20190322065348 46 301 0.0 0.0 0.00 0.00 0.00 71 1022.0
20190322064818 46 238 0.0 0.0 0.00 0.00 0.00 70 1022.0
20190322064314 46 349 0.0 0.0 0.00 0.00 0.00 65 1022.0
20190322063724 46 1 0.0 0.0 0.00 0.00 0.00 65 1022.0
20190322063219 46 9 0.0 0.0 0.00 0.00 0.00 67 1022.0
20190322062711 46 343 0.0 0.0 0.00 0.00 0.00 66 1022.0
20190322062130 46 356 0.0 0.0 0.00 0.00 0.00 67 1022.0
20190322061615 46 349 0.0 0.0 0.00 0.00 0.00 69 1022.0
20190322061024 46 359 0.0 0.0 0.00 0.00 0.00 70 1022.0
20190322060512 46 359 0.0 0.0 0.00 0.00 0.00 71 1021.6
20190322060009 46 254 0.0 0.0 0.00 0.00 0.00 71 1022.0
20190322055419 47 228 0.0 0.0 0.00 0.00 0.00 69 1022.0
20190322054920 47 324 0.0 0.0 0.00 0.00 0.00 69 1022.0
20190322054418 47 216 0.0 0.0 0.00 0.00 0.00 69 1022.0
20190322053912 47 237 0.0 0.0 0.00 0.00 0.00 68 1022.0
20190322053345 47 241 0.0 0.0 0.00 0.00 0.00 63 1021.6
20190322052818 47 358 0.0 0.0 0.00 0.00 0.00 61 1022.0
20190322052310 47 355 0.0 0.0 0.00 0.00 0.00 64 1022.0
20190322051744 47 353 0.0 0.0 0.00 0.00 0.00 67 1022.0
20190322051218 47 230 0.0 0.0 0.00 0.00 0.00 68 1022.0
20190322050714 47 252 0.0 0.0 0.00 0.00 0.00 68 1022.0
20190322050147 48 267 0.0 0.0 0.00 0.00 0.00 66 1022.0
20190322045623 48 267 0.0 0.0 0.00 0.00 0.00 67 1022.3
20190322045117 48 260 0.0 0.0 0.00 0.00 0.00 67 1022.3
20190322044545 48 243 0.0 0.0 0.00 0.00 0.00 66 1022.0
20190322044018 49 238 0.0 0.0 0.00 0.00 0.00 65 1022.0
20190322043440 50 224 0.0 0.0 0.00 0.00 0.00 68 1022.3
20190322042934 50 207 0.0 0.0 0.00 0.00 0.00 68 1022.0
20190322042417 51 207 0.0 0.0 0.00 0.00 0.00 67 1022.0
20190322041911 52 323 0.0 0.0 0.00 0.00 0.00 64 1022.0
20190322041344 52 328 0.0 0.0 0.00 0.00 0.00 62 1021.6
20190322040841 53 355 0.0 0.0 0.00 0.00 0.00 58 1022.0
20190322040316 53 356 0.0 0.0 0.00 0.00 0.00 48 1021.6
20190322035733 53 355 0.0 0.0 0.00 0.00 0.00 47 1021.6
20190322035147 53 355 0.0 0.0 0.00 0.00 0.00 47 1021.6
20190322034622 54 344 0.0 0.0 0.00 0.00 0.00 48 1021.3
20190322034105 54 344 0.0 0.0 0.00 0.00 0.00 51 1021.6
20190322033548 54 344 0.0 0.0 0.00 0.00 0.00 52 1021.3
20190322033037 55 344 0.0 0.0 0.00 0.00 0.00 51 1021.3
20190322032522 55 352 0.0 0.0 0.00 0.00 0.00 46 1021.3
20190322031946 54 355 0.0 0.0 0.00 0.00 0.00 48 1021.3
20190322031437 54 355 0.0 0.0 0.00 0.00 0.00 47 1021.3
20190322030932 54 356 0.0 0.0 0.00 0.00 0.00 47 1020.9
20190322030346 55 359 0.0 0.0 0.00 0.00 0.00 50 1020.9
20190322025822 55 0 0.0 0.0 0.00 0.00 0.00 51 1020.9
20190322025315 56 38 0.0 0.0 0.00 0.00 0.00 50 1020.9
20190322024744 56 29 0.0 0.0 0.00 0.00 0.00 51 1020.9
20190322024219 56 28 0.0 0.0 0.00 0.00 0.00 50 1020.9
20190322023712 57 33 0.0 0.0 0.00 0.00 0.00 48 1020.9
20190322023144 57 26 0.0 0.0 0.00 0.00 0.00 46 1020.9
20190322022641 56 2 0.0 0.0 0.00 0.00 0.00 45 1020.9
20190322022130 56 3 0.0 0.0 0.00 0.00 0.00 47 1020.9
20190322021544 56 357 0.0 0.0 0.00 0.00 0.00 49 1020.9
20190322021017 56 1 0.0 0.0 0.00 0.00 0.00 48 1020.9
20190322020511 57 5 0.0 0.0 0.00 0.00 0.00 47 1020.9
20190322015944 57 7 0.0 0.0 0.00 0.00 0.00 47 1020.9
20190322015419 58 13 0.0 0.0 0.00 0.00 0.00 50 1020.9
20190322014910 59 37 0.0 0.0 0.00 0.00 0.00 49 1020.9
20190322014345 59 21 0.0 0.0 0.00 0.00 0.00 50 1020.9
20190322013837 60 21 0.0 0.0 0.00 0.00 0.00 45 1020.6
20190322013314 60 17 0.0 0.0 0.00 0.00 0.00 40 1020.6
20190322012744 60 19 0.0 0.0 0.00 0.00 0.00 40 1020.6
20190322012216 61 21 0.0 0.0 0.00 0.00 0.00 40 1020.6
20190322011715 61 14 0.0 0.0 0.00 0.00 0.00 38 1020.6
20190322011147 62 9 0.0 0.0 0.00 0.00 0.00 38 1020.6
20190322010643 62 355 0.0 0.0 0.00 0.00 0.00 37 1020.6
20190322010119 63 17 0.0 0.0 0.00 0.00 0.00 37 1020.6
20190322005546 63 17 0.0 0.0 0.00 0.00 0.00 36 1020.6
20190322005037 64 0 0.0 0.0 0.00 0.00 0.00 36 1020.6
20190322004532 64 6 0.0 0.0 0.00 0.00 0.00 36 1020.6
20190322004009 65 358 0.0 0.0 0.00 0.00 0.00 35 1020.6
20190322003511 65 4 0.0 0.0 0.00 0.00 0.00 35 1020.6
20190322002933 66 37 0.0 0.0 0.00 0.00 0.00 34 1020.6
20190322002346 66 333 0.0 0.0 0.00 0.00 0.00 34 1020.6
20190322001846 67 338 0.0 5.0 0.00 0.00 0.00 33 1020.6
20190322001320 67 8 0.0 5.0 0.00 0.00 0.00 32 1020.6
20190322000746 68 353 1.0 2.0 0.00 0.00 0.00 31 1020.6
20190322000217 68 351 1.0 5.0 0.00 0.00 0.00 31 1020.3
20190321235713 69 2 1.0 5.0 0.00 0.00 0.00 30 1020.3
20190321235139 70 339 0.0 5.0 0.00 0.00 0.00 29 1020.3
20190321234624 70 45 3.0 5.0 0.00 0.00 0.00 27 1020.3
20190321234104 70 344 1.0 5.0 0.00 0.00 0.00 27 1020.3
20190321233522 71 3 1.0 8.0 0.00 0.00 0.00 26 1020.3
20190321232948 71 340 3.0 8.0 0.00 0.00 0.00 25 1020.6
20190321232417 71 359 2.0 8.0 0.00 0.00 0.00 25 1020.3
20190321231920 71 340 0.0 2.0 0.00 0.00 0.00 25 1020.3
20190321231414 71 7 0.0 8.0 0.00 0.00 0.00 24 1020.3
20190321230916 72 350 0.0 8.0 0.00 0.00 0.00 25 1020.3
20190321230409 72 359 5.0 8.0 0.00 0.00 0.00 25 1020.3
20190321225817 72 356 3.0 5.0 0.00 0.00 0.00 24 1020.3
20190321225310 73 346 1.0 8.0 0.00 0.00 0.00 24 1020.3
20190321224744 73 358 5.0 8.0 0.00 0.00 0.00 22 1020.3
20190321224247 73 325 1.0 10.0 0.00 0.00 0.00 22 1020.3
20190321223744 73 355 7.0 10.0 0.00 0.00 0.00 23 1020.6
20190321223218 73 324 0.0 10.0 0.00 0.00 0.00 23 1020.6
20190321222719 73 13 9.0 10.0 0.00 0.00 0.00 21 1020.6
20190321222146 73 3 3.0 10.0 0.00 0.00 0.00 22 1020.6
20190321221624 74 350 6.0 8.0 0.00 0.00 0.00 22 1020.6
20190321221113 74 31 4.0 8.0 0.00 0.00 0.00 22 1020.6
20190321220547 74 30 0.0 15.0 0.00 0.00 0.00 23 1020.6
20190321220044 74 353 9.0 15.0 0.00 0.00 0.00 22 1020.6
20190321215510 74 21 1.0 5.0 0.00 0.00 0.00 22 1020.6
20190321214946 74 353 0.0 8.0 0.00 0.00 0.00 19 1020.6
20190321214438 74 347 1.0 8.0 0.00 0.00 0.00 19 1020.6
20190321213918 74 265 4.0 8.0 0.00 0.00 0.00 20 1020.9
20190321213349 74 340 4.0 8.0 0.00 0.00 0.00 20 1020.9
20190321212824 74 317 3.0 10.0 0.00 0.00 0.00 20 1020.9
20190321212251 74 290 5.0 10.0 0.00 0.00 0.00 21 1020.9
20190321211735 74 47 5.0 10.0 0.00 0.00 0.00 20 1020.9
20190321211220 74 29 3.0 10.0 0.00 0.00 0.00 20 1020.9
20190321210715 74 357 6.0 8.0 0.00 0.00 0.00 21 1020.9
20190321210144 74 341 5.0 10.0 0.00 0.00 0.00 22 1021.3
20190321205640 74 9 3.0 10.0 0.00 0.00 0.00 21 1021.3
20190321205116 73 267 4.0 8.0 0.00 0.00 0.00 23 1020.9
20190321204546 73 61 0.0 8.0 0.00 0.00 0.00 23 1020.9
20190321204044 73 332 1.0 10.0 0.00 0.00 0.00 23 1021.3
20190321203520 73 16 3.0 10.0 0.00 0.00 0.00 23 1021.3
20190321203016 73 327 6.0 10.0 0.00 0.00 0.00 23 1021.3
20190321202514 73 1 2.0 10.0 0.00 0.00 0.00 24 1021.3
20190321201944 73 348 8.0 10.0 0.00 0.00 0.00 23 1021.6
20190321201441 73 25 4.0 10.0 0.00 0.00 0.00 23 1021.6
20190321200930 73 171 1.0 13.0 0.00 0.00 0.00 28 1021.6
20190321200412 73 331 4.0 10.0 0.00 0.00 0.00 24 1022.0
20190321195820 72 254 7.0 10.0 0.00 0.00 0.00 26 1022.0
20190321195312 72 339 6.0 17.0 0.00 0.00 0.00 25 1022.0
20190321194747 72 357 8.0 17.0 0.00 0.00 0.00 26 1022.0
20190321194217 72 5 0.0 8.0 0.00 0.00 0.00 25 1022.0
20190321193723 71 262 1.0 8.0 0.00 0.00 0.00 26 1022.0
20190321193217 71 332 1.0 8.0 0.00 0.00 0.00 26 1022.3
20190321192718 71 227 0.0 8.0 0.00 0.00 0.00 29 1022.3
20190321192215 71 215 1.0 5.0 0.00 0.00 0.00 27 1022.3
20190321191705 70 329 4.0 8.0 0.00 0.00 0.00 28 1022.3
20190321191116 70 351 5.0 8.0 0.00 0.00 0.00 27 1022.6
20190321190536 70 315 0.0 8.0 0.00 0.00 0.00 29 1022.6
20190321185947 70 268 2.0 8.0 0.00 0.00 0.00 28 1022.6
20190321185439 69 357 0.0 13.0 0.00 0.00 0.00 27 1023.0
20190321184912 69 344 8.0 10.0 0.00 0.00 0.00 28 1022.6
20190321184346 69 348 2.0 10.0 0.00 0.00 0.00 28 1022.6
20190321183814 69 355 1.0 8.0 0.00 0.00 0.00 28 1023.0
20190321183312 69 6 2.0 8.0 0.00 0.00 0.00 27 1023.0
20190321182807 69 10 0.0 13.0 0.00 0.00 0.00 26 1023.0
20190321182311 68 19 6.0 13.0 0.00 0.00 0.00 29 1023.0
20190321181737 68 345 3.0 10.0 0.00 0.00 0.00 28 1023.0
20190321181240 68 9 8.0 10.0 0.00 0.00 0.00 29 1023.0
20190321180658 67 27 2.0 5.0 0.00 0.00 0.00 29 1023.0
20190321180133 67 28 0.0 8.0 0.00 0.00 0.00 32 1023.0
20190321175620 67 266 1.0 8.0 0.00 0.00 0.00 32 1023.0
20190321175049 67 316 1.0 5.0 0.00 0.00 0.00 31 1023.3
20190321174545 66 26 3.0 8.0 0.00 0.00 0.00 30 1023.3
20190321174040 66 336 4.0 10.0 0.00 0.00 0.00 29 1023.3
20190321173515 66 3 5.0 10.0 0.00 0.00 0.00 32 1023.3
20190321172944 65 26 0.0 10.0 0.00 0.00 0.00 32 1023.0
20190321172447 65 312 1.0 8.0 0.00 0.00 0.00 33 1023.0
20190321171943 65 349 1.0 8.0 0.00 0.00 0.00 32 1023.0
20190321171441 65 7 2.0 8.0 0.00 0.00 0.00 31 1023.0
20190321170913 64 305 2.0 8.0 0.00 0.00 0.00 32 1023.3
20190321170347 64 11 0.0 8.0 0.00 0.00 0.00 32 1023.0
20190321165843 64 18 2.0 8.0 0.00 0.00 0.00 32 1023.3
20190321165305 64 328 0.0 8.0 0.00 0.00 0.00 31 1023.3
20190321164745 63 10 4.0 8.0 0.00 0.00 0.00 34 1023.3
20190321164237 63 354 1.0 8.0 0.00 0.00 0.00 34 1023.3
20190321163710 63 340 5.0 10.0 0.00 0.00 0.00 35 1023.3
20190321163145 62 356 2.0 8.0 0.00 0.00 0.00 34 1023.3
20190321162637 62 17 2.0 10.0 0.00 0.00 0.00 34 1023.3
20190321162109 61 344 5.0 10.0 0.00 0.00 0.00 35 1023.3
20190321161611 60 10 4.0 8.0 0.00 0.00 0.00 36 1023.3
20190321161023 60 340 3.0 8.0 0.00 0.00 0.00 37 1023.6
20190321160506 60 18 2.0 8.0 0.00 0.00 0.00 37 1023.3
20190321155949 59 10 3.0 8.0 0.00 0.00 0.00 38 1023.6
20190321155440 59 3 1.0 8.0 0.00 0.00 0.00 39 1023.6
20190321154909 58 329 3.0 8.0 0.00 0.00 0.00 39 1023.6
20190321154346 58 334 5.0 8.0 0.00 0.00 0.00 39 1023.3
20190321153837 58 304 1.0 13.0 0.00 0.00 0.00 40 1023.3
20190321153333 57 336 4.0 13.0 0.00 0.00 0.00 39 1023.6
20190321152817 57 316 2.0 13.0 0.00 0.00 0.00 40 1023.3
20190321152318 57 318 7.0 13.0 0.00 0.00 0.00 40 1023.3
20190321151815 57 30 2.0 10.0 0.00 0.00 0.00 41 1023.3
20190321151310 57 338 3.0 10.0 0.00 0.00 0.00 42 1023.3
20190321150746 56 356 0.0 10.0 0.00 0.00 0.00 42 1023.3
20190321150237 56 45 1.0 5.0 0.00 0.00 0.00 41 1023.0
20190321145732 56 335 3.0 5.0 0.00 0.00 0.00 40 1023.0
20190321145149 56 307 0.0 5.0 0.00 0.00 0.00 43 1023.0
20190321144649 55 343 1.0 5.0 0.00 0.00 0.00 48 1023.0
20190321144135 55 333 0.0 8.0 0.00 0.00 0.00 54 1022.6
20190321143543 54 0 3.0 8.0 0.00 0.00 0.00 54 1023.0
20190321143039 54 14 0.0 5.0 0.00 0.00 0.00 56 1023.0
20190321142520 53 333 2.0 8.0 0.00 0.00 0.00 58 1022.6
20190321142017 53 322 2.0 8.0 0.00 0.00 0.00 58 1022.6
20190321141511 53 310 2.0 5.0 0.00 0.00 0.00 60 1022.6
20190321140931 52 277 4.0 5.0 0.00 0.00 0.00 62 1022.6
20190321140346 51 48 2.0 5.0 0.00 0.00 0.00 64 1022.3
20190321135817 51 11 0.0 10.0 0.00 0.00 0.00 65 1022.3
20190321135303 50 260 0.0 13.0 0.00 0.00 0.00 66 1022.6
20190321134746 49 324 0.0 13.0 0.00 0.00 0.00 66 1022.3
20190321134245 49 279 3.0 8.0 0.00 0.00 0.00 68 1022.3
20190321133716 48 248 1.0 8.0 0.00 0.00 0.00 70 1022.3
20190321133221 48 264 2.0 5.0 0.00 0.00 0.00 72 1022.0
20190321132716 47 299 0.0 5.0 0.00 0.00 0.00 73 1022.0
20190321132224 47 282 2.0 5.0 0.00 0.00 0.00 74 1022.0
20190321131702 47 284 2.0 8.0 0.00 0.00 0.00 76 1022.0
20190321131147 47 249 1.0 8.0 0.00 0.00 0.00 75 1022.0
20190321130618 47 249 5.0 10.0 0.00 0.00 0.00 76 1022.0
20190321130123 47 287 3.0 10.0 0.00 0.00 0.00 76 1022.0
20190321125616 47 255 4.0 8.0 0.00 0.00 0.00 76 1022.0
20190321125119 47 263 2.0 8.0 0.00 0.00 0.00 76 1022.0
20190321124616 47 255 4.0 8.0 0.00 0.00 0.00 76 1022.0
20190321124109 47 258 4.0 10.0 0.00 0.00 0.00 75 1021.6
20190321123544 47 258 2.0 10.0 0.00 0.00 0.00 75 1021.6
20190321123016 47 251 5.0 8.0 0.00 0.00 0.00 75 1022.0
20190321122436 46 249 4.0 10.0 0.00 0.00 0.00 76 1022.0
20190321121910 46 238 6.0 10.0 0.00 0.00 0.00 77 1022.0
20190321121342 46 238 4.0 10.0 0.00 0.00 0.00 77 1022.0
20190321120839 46 261 5.0 10.0 0.00 0.00 0.00 77 1021.6
20190321120314 46 236 5.0 10.0 0.00 0.00 0.00 78 1022.0
20190321115731 46 256 3.0 10.0 0.00 0.00 0.00 78 1022.0
20190321115143 46 254 2.0 8.0 0.00 0.00 0.00 78 1022.0
20190321114615 46 281 2.0 5.0 0.00 0.00 0.00 79 1022.0
20190321114105 46 266 2.0 5.0 0.00 0.00 0.00 79 1021.6
20190321113517 46 256 2.0 5.0 0.00 0.00 0.00 79 1022.0
20190321113015 46 260 2.0 5.0 0.00 0.00 0.00 79 1021.6
20190321112518 46 248 2.0 8.0 0.00 0.00 0.00 79 1021.6
20190321111942 46 221 3.0 8.0 0.00 0.00 0.00 78 1021.6
20190321111439 46 240 3.0 5.0 0.00 0.00 0.00 79 1021.6
20190321110929 46 264 1.0 5.0 0.00 0.00 0.00 78 1021.6
20190321110344 46 251 1.0 5.0 0.00 0.00 0.00 78 1021.6
20190321105817 45 237 2.0 5.0 0.00 0.00 0.00 78 1021.3
20190321105239 45 254 1.0 5.0 0.00 0.00 0.00 78 1021.6
20190321104713 45 239 1.0 5.0 0.00 0.00 0.00 78 1021.6
20190321104138 45 243 2.0 5.0 0.00 0.00 0.00 79 1021.6
20190321103550 45 286 2.0 5.0 0.00 0.00 0.00 79 1021.3
20190321103044 45 237 2.0 5.0 0.00 0.00 0.00 79 1021.3
20190321102544 45 259 3.0 5.0 0.00 0.00 0.00 79 1021.3
20190321102036 45 265 1.0 5.0 0.00 0.00 0.00 80 1021.3
20190321101518 45 261 2.0 2.0 0.00 0.00 0.00 79 1021.3
20190321101015 45 268 1.0 5.0 0.00 0.00 0.00 79 1021.3
20190321100503 44 258 0.0 5.0 0.00 0.00 0.00 79 1021.3
20190321095943 44 284 0.0 2.0 0.00 0.00 0.00 79 1020.9
20190321095438 43 264 2.0 2.0 0.00 0.00 0.00 80 1021.3